Probability
0 0 0 0 0 0 0 0 0 0 0 0 0 0 0 0 0 0 0 0 0 0 0 0 0 0 0 0 0 0 0 0 0 0 0 0 0 0 0 0 0 0 0
0 0 0 0 0 0 0 0 0 0 0 0 0 0 0 0 0 0 0 0 0 0 0 0 0 0 0 0 0 0 0 0 0 0 0 0 0 0 0 0 0 0 0
0 0 0 0 0 0 0 0 0 0 0 0 0 0 0 0 0 0 0 0 0 0 0 0 0 0 0 0 0 0 0 0 0 0 0 0 0 0 0 0 0 0 0
0 0 0 0 0 0 0 0 0 0 0 0 0 0 0 0 0 0 0 0 0 0 0 0 0 0 0 0 0 0 0 0 0 0 0 0 0 0 0 0 0 0 0
0 0 0 0 0 0 0 0 0 0 0 0 0 0 0 0 0 0 0 0 0 0 0 0 0 0 0 0 0 0 0 0 0 0 0 0 0 0 0 0 0 0 0
0 0 0 0 0 0 0 0 0 0 0 0 0 0 0 0 0 0 0 0 0 0 0 0 0 0 0 0 0 0 0 0 0 0 0 0 0 0 0 0 0 0 0
0 0 0 0 0 0 0 0 0 0 0 0 0 0 0 0 0 0 0 0 0 0 0 0 0 0 0 0 0 0 0 0 0 0 0 0 0 0 0 0 0 0 0
0 0 0 0 0 0 0 0 0 0 0 0 0 0 0 0 0 0 0 0 0 0 0 0 0 0 0 0 0 0 0 0 0 0 0 0 0 0 0 0 0 0 0
0 0 0 0 0 0 0 0 0 0 0 0 0 0 0 0 0 0 0 0 0 0 0 0 0 0 0 0 0 0 0 0 0 0 0 0 0 0 0 0 0 0 0
0 0 0 0 0 0 0 0 0 0 0 0 0 0 0 0 0 0 0 0 0 0 0 0 0 0 0 0 0 0 0 0 0 0 0 0 0 0 0 0 0 0 0
0 0 0 0 0 0 0 0 0 0 0 0 0 0 0 0 0 0 0 0 0 0 0 0 0 0 0 0 0 0 0 0 0 0 0 0 0 0 0 0 0 0 0
0 0 0 0 0 0 0 0 0 0 0 0 0 0 0 0 0 0 0 0 0 0 0 0 0 0 0 0 0 0 0 0 0 0 0 0 0 0 0 0 0 0 0
0 0 0 0 0 0 0 0 0 0 0 0 0 0 0 0 0 0 0 0 0 0 0 0 0 0 0 0 0 0 0 0 0 0 0 0 0 0 0 0 0 0 0
0 0 0 0 0 0 0 0 0 0 0 0 0 0 0 0 0 0 0 0 0 0 0 0 0 0 0 0 0 0 0 0 0 0 0 0 0 0 0 0 0 0 0
0 0 0 0 0 0 0 0 0 0 0 0 0 0 0 0 0 0 0 0 0 0 0 0 0 0 0 0 0 0 0 0 0 0 0 0 0 0 0 0 0 0 0
0 0 0 0 0 0 0 0 0 0 0 0 0 0 0 0 0 0 0 0 0 0 0 0 0 0 0 0 0 0 0 0 0 0 0 0 0 0 0 0 0 0 0
0 0 0 0 0 0 0 0 0 0 0 0 0 0 0 0 0 0 0 0 0 0 0 0 0 0 0 0 0 0 0 0 0 0 0 0 0 0 0 0 0 0 0
0 0 0 0 0 0 0 0 0 0 0 0 0 0 0 0 0 0 0 0 0 0 0 0 0 0 0 0 0 0 0 0 0 0 0 0 0 0 0 0 0 0 0
0 0 0 0 0 0 0 0 0 0 0 0 0 0 0 0 0 0 0 0 0 0 0 0 0 0 0 0 0 0 0 0 0 0 0 0 0 0 0 0 0 0 0
0 0 0 0 0 0 0 0 0 0 0 0 0 0 0 0 0 0 0 0 0 0 0 0 0 0 0 0 0 0 0 0 0 0 0 0 0 0 0 0 0 0 0
0 0 0 0 0 0 0 0 0 0 0 0 0 0 0 0 0 0 0 0 0 0 0 0 0 0 0 0 0 0 0 0 0 0 0 0 0 0 0 0 0 0 0
0 0 0 0 0 0 0 0 0 0 0 0 0 0 0 0 0 0 0 0 0 0 0 0 0 0 0 0 0 0 0 0 0 0 0 0 0 0 0 0 0 0 0
0 0 0 0 0 0 0 0 0 0 0 0 0 0 0 0 0 0 0 0 0 0 0 0 0 0 0 0 0 0 0 0 0 0 0 0 0 0 0 0 0 0 0
0 0 0 0 0 0 0 0 0 0 0 0 0 0 0 0 0 0 0 0 0 0 0 0 0 0 0 0 0 0 0 0 0 0 0 0 0 0 0 0 0 0 0
0 0 0 0 0 0 0 0 0 0 0 0 0 0 0 0 0 0 0 0 0 0 0 0 0 0 0 0 0 0 0 0 0 0 0 0 0 0 0 0 0 0 0
0 0 0 0 0 0 0 0 0 0 0 0 0 0 0 0 0 0 0 0 0 0 0 0 0 0 0 0 0 0 0 0 0 0 0 0 0 0 0 0 0 0 0
Wind_Speed
5 4 4 3 3 3 3 4 4 4 4 5 5 5 6 6 6 6 7 7 8 8 8 8 9 8 7 6 6 7 7 8 14 10 5 6 8 10 11 10 10 10 11
5 4 4 3 3 3 4 4 4 5 5 5 5 6 6 7 7 7 8 8 8 9 9 9 10 8 9 7 7 8 8 9 11 16 9 6 8 9 10 11 11 11 9
5 4 3 3 3 4 5 4 4 5 5 5 5 6 7 7 8 8 8 9 9 10 10 10 11 10 10 8 9 9 8 10 9 12 12 8 7 7 9 10 11 10 10
4 4 4 4 5 5 4 4 5 5 5 6 6 7 7 8 8 9 9 9 10 10 10 11 11 10 11 10 10 10 10 10 10 11 12 9 7 7 7 8 9 7 8
5 4 5 4 4 4 4 5 5 5 6 6 6 7 7 7 8 9 9 10 10 10 10 10 11 14 18 15 12 10 9 9 10 10 11 9 8 5 6 6 9 8 8
5 5 4 3 4 4 5 5 5 6 6 6 7 8 8 9 16 21 17 10 9 10 10 9 10 14 17 23 25 24 20 14 11 10 10 10 9 8 7 8 9 10 9
4 4 3 3 4 5 5 5 6 6 6 7 8 8 9 12 20 22 23 14 10 9 9 9 10 11 17 10 17 23 21 24 24 15 13 12 11 9 9 11 11 11 11
4 3 4 4 5 5 5 6 7 6 6 7 8 9 10 13 21 23 23 14 9 9 10 10 11 11 11 14 12 12 12 14 16 12 12 13 12 11 11 12 12 11 10
4 4 4 4 5 5 6 7 7 6 7 8 8 9 10 13 20 23 23 10 8 10 10 10 11 11 19 24 16 13 13 12 17 23 23 21 23 23 17 9 7 8 9
5 4 4 4 5 6 7 7 6 6 8 9 9 9 10 12 18 23 23 8 9 9 8 9 17 19 22 25 15 12 14 12 10 11 14 15 13 13 19 10 6 8 8
3 3 4 5 5 6 6 6 7 7 8 9 10 10 9 13 17 21 22 11 8 10 9 7 8 21 25 25 22 13 17 17 10 9 8 7 7 6 7 7 7 7 8
3 4 5 5 6 6 6 7 7 7 9 9 10 10 8 9 14 17 22 21 20 12 10 8 10 22 25 26 20 19 24 20 7 5 6 6 6 6 6 6 8 8 9
3 5 5 6 6 6 6 8 7 6 7 8 8 10 9 7 9 20 23 24 24 15 10 18 22 25 24 16 18 23 18 7 6 7 7 7 6 6 5 5 6 7 8
4 5 5 6 6 6 6 6 7 7 7 8 9 10 10 9 7 7 9 11 16 14 11 15 22 21 17 16 15 11 6 6 7 7 7 6 5 5 6 5 5 5 5
5 6 6 6 7 7 7 7 8 8 9 11 9 9 11 11 13 21 16 10 9 11 13 8 6 6 5 5 6 6 6 6 7 6 6 6 6 6 6 4 5 4 5
5 6 5 5 6 6 7 9 13 15 20 22 22 20 15 20 27 27 27 26 26 24 16 7 6 6 7 7 7 7 6 6 6 6 7 7 7 7 6 5 5 5 6
6 7 6 6 7 7 8 9 11 12 17 20 22 24 23 25 27 27 26 26 24 22 10 6 7 8 8 7 7 7 7 7 6 6 7 7 7 7 6 6 5 5 5
7 9 9 6 7 7 8 9 9 11 12 10 13 20 24 25 25 25 26 22 12 9 6 7 8 8 7 7 7 8 8 7 6 6 7 7 6 7 6 6 5 6 5
6 6 6 7 7 8 8 9 9 11 12 12 10 11 18 21 22 23 21 10 8 9 8 8 8 8 8 7 8 8 8 8 7 7 7 7 6 6 6 6 6 9 7
6 13 13 8 8 8 8 9 10 10 11 11 11 10 9 11 10 11 9 8 8 8 8 8 8 8 8 7 8 8 8 8 8 7 7 7 6 6 7 7 6 6 5
6 9 15 11 8 9 9 9 10 10 11 11 11 13 20 13 11 10 9 8 8 8 9 8 8 8 8 7 7 8 9 9 8 7 7 7 7 6 6 6 6 6 5
7 7 8 9 9 9 10 9 9 10 11 13 12 12 21 13 9 10 10 9 9 8 8 8 9 8 7 8 8 9 9 9 8 7 7 7 7 7 6 6 6 6 6
7 9 10 9 9 14 13 10 10 11 12 12 12 12 11 10 10 10 10 9 9 9 8 8 9 9 8 8 8 9 10 10 8 8 8 8 7 7 7 7 7 7 6
8 9 10 10 10 10 10 11 10 11 12 12 12 11 11 11 11 12 11 10 9 9 9 8 9 11 14 11 9 9 9 10 10 9 11 10 9 8 7 7 8 8 7
8 9 9 9 10 10 11 11 11 12 12 12 12 12 12 11 12 12 11 10 10 10 11 11 9 11 13 15 14 12 17 22 20 13 10 9 10 10 9 9 8 8 8
8 9 9 9 10 10 11 12 12 12 12 12 12 12 12 12 12 12 11 10 10 10 11 10 12 13 15 14 16 19 23 23 23 23 14 9 10 10 10 9 10 9 9
Wind_Direction
176 175 173 186 191 196 216 235 243 252 257 261 266 271 274 275 273 270 268 270 268 269 268 265 263 261 260 256 252 251 252 256 275 283 256 254 256 264 274 273 273 272 274
178 175 184 191 197 215 237 247 249 256 260 261 267 271 273 274 271 269 272 273 269 270 270 268 268 268 262 258 256 255 256 253 266 282 281 266 257 258 263 266 273 273 267
172 175 188 203 215 231 244 252 255 259 266 268 267 269 272 273 273 269 266 268 265 264 265 265 267 266 267 263 258 259 260 262 259 271 280 273 265 262 266 268 268 269 270
173 181 200 216 223 235 247 255 259 260 265 268 267 267 270 274 273 272 269 266 264 264 262 261 262 261 263 264 265 262 261 263 263 267 274 275 268 259 259 268 275 266 267
177 194 214 223 231 242 252 259 263 263 266 267 272 274 274 276 273 273 269 266 265 267 265 261 261 267 271 274 276 268 262 264 267 270 274 276 271 265 261 262 273 277 269
186 207 218 226 240 250 256 262 267 270 271 271 272 274 276 279 290 294 293 280 270 268 270 268 268 276 281 284 288 289 285 279 275 272 277 276 276 268 268 267 272 277 278
195 213 224 233 247 256 263 269 270 271 271 274 273 273 274 278 291 295 295 293 278 271 270 273 278 277 287 279 283 285 285 283 280 277 276 275 274 270 269 271 267 266 268
201 223 236 239 251 261 266 268 270 269 270 273 275 274 275 280 292 298 299 294 279 271 268 267 270 274 273 280 272 268 265 267 269 270 265 265 264 264 259 264 269 271 268
215 232 241 243 254 264 267 269 271 272 274 274 274 275 275 282 291 297 298 286 277 273 270 268 272 271 278 287 286 278 276 270 273 273 272 273 273 278 279 277 275 278 279
229 239 248 249 254 261 264 269 270 269 276 280 279 273 272 276 287 294 296 285 280 278 273 267 279 284 287 290 287 280 280 278 272 273 275 278 280 280 283 276 269 273 277
242 253 259 257 257 261 264 266 272 277 281 280 281 278 271 274 286 292 295 291 279 281 280 276 271 288 291 292 292 285 282 286 279 273 271 266 261 258 258 256 250 253 263
253 261 264 264 267 274 269 274 274 277 283 284 285 285 274 272 282 288 292 293 294 290 285 281 277 288 292 294 295 292 294 298 290 280 273 269 265 261 258 256 256 253 253
265 267 268 270 266 266 267 275 279 273 277 284 285 287 288 276 276 288 293 295 295 292 282 285 291 295 299 299 295 296 299 296 286 278 273 271 264 261 264 267 266 263 262
266 271 273 273 274 269 266 268 272 275 276 281 283 286 288 286 278 274 274 284 289 289 288 287 292 295 294 293 295 297 286 274 278 273 273 272 270 267 265 262 268 270 272
269 273 275 272 272 275 269 262 270 260 264 279 280 278 286 289 287 293 295 291 285 280 290 284 281 286 282 280 280 278 272 275 281 272 272 274 274 272 270 264 261 263 265
277 276 274 275 275 276 282 286 277 277 285 287 289 289 287 289 297 299 300 300 301 300 300 291 289 288 286 285 286 286 281 278 274 273 272 270 273 272 272 269 263 259 265
270 278 278 277 279 281 283 288 294 294 288 289 291 293 293 296 299 301 302 302 300 303 298 286 284 283 282 282 282 280 279 276 273 272 272 270 270 269 268 268 266 264 264
271 280 284 277 276 278 280 282 285 291 297 293 290 292 295 297 299 301 302 304 299 296 276 275 277 278 277 278 279 279 277 276 272 269 268 266 264 265 266 263 260 258 264
276 276 276 275 275 276 280 282 282 284 287 291 292 291 294 298 299 298 301 293 287 285 280 275 273 275 276 276 276 276 275 274 271 270 268 265 261 259 260 260 258 263 263
276 285 291 287 283 283 283 283 284 285 287 288 288 291 295 295 291 291 287 279 277 278 278 277 275 273 275 274 274 274 274 272 268 266 266 264 260 255 256 256 255 255 254
279 284 291 292 283 283 282 281 282 283 285 287 286 288 294 294 291 289 287 282 276 275 276 276 275 274 271 270 270 269 270 270 266 261 262 263 260 257 252 250 250 251 252
278 280 281 282 283 283 283 280 282 283 285 286 288 291 295 293 287 286 285 282 279 275 272 273 274 271 266 267 269 270 270 269 266 260 259 259 257 256 252 247 246 245 246
281 284 285 285 284 288 292 286 284 285 286 287 289 290 289 285 284 284 283 283 281 278 274 271 273 272 268 265 264 264 266 267 265 261 259 260 257 253 249 246 242 242 242
281 283 286 289 290 288 288 289 288 287 288 287 286 286 287 286 285 285 284 282 281 279 276 273 271 272 271 271 268 264 261 263 262 258 254 254 254 252 248 245 241 238 237
285 287 290 291 291 290 289 289 288 287 287 288 287 287 287 286 285 285 283 281 280 279 277 275 273 273 272 271 270 268 269 272 272 267 253 247 247 244 242 242 239 236 232
291 292 292 290 288 288 288 289 288 288 287 288 287 285 286 286 285 284 284 282 281 280 280 278 273 272 273 274 273 274 276 275 273 272 264 251 243 239 235 236 235 231 230